Погода в Гвасюги

Погода в Гвасюги : погода сейчас, прогноз погоды и архив. Всё, что Вы хотите узнать о погоде в Гвасюги!

Поиск расширенной информации на нашем сайте:

Другие новости

Новости СМИ2

Главная страница сайта

Новости сайта

02.10.2013

Напоминаем, что на нашем новом сайте вы можете получить высокодетализированные прогнозы погоды по пунктам России, СНГ и мира (включающие важные для авиации метеовеличины, такие как направление и скорость ветра, видимость, явления погоды, количество и форма облачности, нижняя и верхняя граница облачности), а также ознакомиться с разнообразными материалами по авиационной метеорологии и подборкой полезных ссылок на эту тему.

Сайт Метеоцентр.Азия посвящён разработке технологий оптимизации авиаметеорологического обслуживания, включая проектирование и перспективное создание нескольких автоматизированных авиаметеорологических систем:
- система выпуска высокодетальных прогностических карт явлений погоды для нижнего воздушного пространства по России и ближнему зарубежью;
- система верификации прогнозов TAF (выпускаемых синоптиками официальных АМСГ РФ и ближнего зарубежья) и AUTOTAF (выпускаемых сайтом Метеоцентр.Азия) - выявление ошибок, онлайн-сопоставление с фактической погодой METAR, автоматическое внесение коррективов в прогнозы при резком отклонении фактической погоды от прогноза, подсчёт оправдываемости прогнозов по элементам и в целом;
- система обработки, анализа и отображения авиаметеорологической информации для применения провайдерами метеорологической информации.

Рекомендуем: Кредит наличными: росгосстрах банк взять потребительский кредит www.balt-credit.ru.

Погода в Гвасюги - сегодня

Время (UTC), дата Ветер
(°,м/с) 
Видим.   Явления Облачность Т
(°С)
Тd
(°С)
f(%) Тe
(°С)
Pmin
(гПа)
dP
(гПа)
Po
(мм)
O2
(г/м3)
Тmin Tmax R s Состояние
почвы
03 25.02.17 250 (З) 5{11}  20000 м  позёмок  4/1 600 м средняя, верхняя 
[Sc|Ac lent|Ci sp]
-12.1 -24.5 35 -17  1008.8  0.1  739  313           
06 25.02.17 250 (З) 3{12}  20000 м  позёмок  1/1 600 м 
[Sc]
-11.2 -27.4 25 -14  1009.1  0.4  739  312           
09 25.02.17 270 (З) 20000 м    1/1 600 м 
[Sc]
-14.6 -26.7 35 -15  1013.1  3.5  742  318    -10.5  0.0     
12 25.02.17 тихо ()   20000 м    4/0 верхняя 
[Ci fib]
-24.8 -28 75 -25  1015.1  743  331           
15 25.02.17 тихо ()   20000 м    ясно 
-29.3 -32.4 75 -29  1016.6  1.1  744  338           
18 25.02.17 тихо ()   20000 м    ясно 
-31.6 -34.5 76 -32  1018.3  1.3  745  341           
21 25.02.17 тихо ()   20000 м    ясно 
-34.5 -38.1 70 -35  1021.7  747  346  -34.5      59  равномерный
сухой снег
100% 
00 26.02.17 тихо ()   20000 м    ясно 
-24.7 -28.6 70 -25  1023.5  749  334  -34.9         
03 26.02.17 160 (Ю) 20000 м    ясно 
-13 -22.5 45 -15  1022.4  -0.2  749  318           
06 26.02.17 230 (ЮЗ) 20000 м    ясно 
-9.2 -22.3 34 -12  1021.5  -0.3  749  314           
09 26.02.17 270 (З) 20000 м    ясно 
-14.7 -22.8 50 -15  1023.6  1.3  750  321    -8.7       
12 26.02.17 тихо ()   20000 м    ясно 
-25.2 -27.7 80 -25  1026.8  2.3  751  335           
15 26.02.17 тихо ()   20000 м    ясно 
-29.5 -32.6 74 -30  1028.8  1.3  752  342           
18 26.02.17 020 (С) 20000 м    ясно 
-32 -35 75 -33  1030  753  346           
21 26.02.17 360 (С) 20000 м    ясно 
-31.1 -34.1 75 -32  1030.5  0.6  754  345  -32.2      58  равномерный
сухой снег
100% 
00 27.02.17 тихо ()   20000 м    ясно 
-20.8 -24.8 70 -21  1029.5  754  330           
03 27.02.17 140 (ЮВ) 20000 м    3/0 верхняя 
[Ci]
-5.9 -22 27 -6  1025.5  -2.4  752  311           
06 27.02.17 160 (Ю) 20000 м    10/0 верхняя 
[Cc]
-1.8 -19 26 -3  1023.1  -2.1  750  306           
09 27.02.17 тихо ()   20000 м    10/0 средняя, верхняя 
[Ac lent|Ci ing]
-5.9 -15.6 46 -6  1023.1  -0.3  750  310    -0.9       
12 27.02.17 020 (С) 20000 м    3/0 верхняя 
[Ci sp]
-14.5 -17.2 80 -15  1023.9  750  321           
15 27.02.17 340 (С) 20000 м    ясно 
-19.3 -21.2 85 -20  1023.7  -0.6  749  327           
18 27.02.17 340 (С) 20000 м    3/0 верхняя 
[Ci fib]
-19.5 -21.4 85 -22  1023.3  -0.4  749  327           
21 27.02.17 тихо ()   20000 м    8/5 600 м средняя, верхняя 
[Sc|Ac lent|Ci sp]
-17.4 -19.3 85 -17  1022.1  -1  748  324  -20.4      57  равномерный
сухой снег
100% 
00 28.02.17 050 (СВ) 20000 м    8/0 верхняя 
[Ci fib]
-10.9 -15.3 70 -11  1020.7  -0.8  748  315           
03 28.02.17 180 (Ю) 20000 м    10/0 верхняя 
[Cs]
+2.4 -10 39 1016.3  -3.2  745  299           
Время (UTC), дата Ветер
(°,м/с) 
Видим.   Явления Облачность Т
(°С)
Тd
(°С)
f(%) Тe
(°С)
Pmin
(гПа)
dP
(гПа)
Po
(мм)
O2
(г/м3)
Тmin Tmax R s Состояние
почвы

Для получения пояснительной информации подведите курсор к названию столбца.

ПОГОДА в Гвасюги - архив

Всё, что Вы хотите узнать о погоде в Гвасюги - удобно и подробно!

Выберите нужную дату (начиная с 1 января 2015* года) и нажмите кнопку "Найти".
Будут отображены архивные сводки погоды по пункту Гвасюги, начиная с указанной даты.


Отображать данные в формате CSV (для использования в таблицах Excel)


Внимание! Наш архив погоды предназначен исключительно для личного некоммерческого использования в познавательных целях. Если Вам необходимы официальные справки о состоянии погоды (для производственных, юридических, коммерческих и т.п. целей), обращайтесь в органы Росгидромета.

*Примечание: данная дата относится к архиву по метеостанциям СССР (Россия, СНГ, Балтия).
Архив по метеостанциям Зарубежной Европы и Азии (кроме Китая) хранится 10 дней, по другим регионам земного шара (Китай, Африка, Америка, Австралия, Океания) - 1 день.

Гвасюги - район местоположения метеостанции


Название, широта, долгота, высота метеостанции:
Гвасюги 47.7°ш. 136.2°д. 180 м над ур. моря [Российская Федерация]

Дополнительная информация

В oтличие oт бoльшинства пoгoдных сайтoв мы публикуем пoдрoбную метеoинфoрмацию в детальнoм прoфессиoнальнoм фoрмате.

Характеристики температуры и влажнoсти вoздуха измеряются на высoте 2 м в тени вдали oт зданий и деревьев.
Скoрoсть ветра измеряется на высoте 10 м (на урoвне рoста челoвека скoрoсть ветра ниже в 1.5-2 раза). Если метеoстанция нахoдится в гoрoде или в лесу, тo скoрoсть ветра занижена на 2-4 м/с пo сравнению с oткрытым местoм. Скoрoсть ветра над акватoриями крупных рек и oзёр, а также на вершинах хoлмoв на 2-5 м/с выше, чем в oбычных услoвиях.
Атмoсфернoе давление в разных тoчках местнoсти мoжет значительнo oтличаться oт давления на метеoстанции, в зависимoсти oт услoвий рельефа (при пoдъёме на 10 м давление пoнижается примернo на 1 мм рт.ст.).